OBJECT D, 44882

Orbit data source: Space-Track

You're viewing an Uncataloged Satellite

Recently launched and/or uncataloged satellites may have evolving metadata. Metadata may include but not limited to: Owner, Maufacturer, Bus, Motor, and Mission.

OBJECT D, 44882 is a satellite in SSO that was launched on Fri, 20 Dec 2019 UTC via a CHANG ZHENG 4B launch vehicle from the Taiyaun Space Center, China (TSC). Unknown objects in Earth's orbit typically refer to objects detected orbiting the Earth but have not yet been identified or cataloged. These objects could be anything from previously untracked satellites, spent rocket stages, debris from satellite collisions, or even natural meteoroids temporarily captured by Earth's gravity.

Loading next visibility...
Identifier
44882, 2019-093D
Orbit
SSO
Country
Flag of TBDTBD
Related business
None
Manufacturer
Unknown
Mission
Operational Commercial Communications
Bus & Motor
Unknown
Mass
Unknown
Launch date (UTC)
2019-12-20 (6 years ago)
Launch vehicle
CHANG ZHENG 4B
Launch site
Taiyaun Space Center, China (TSC)
Object type
Unknown
Shape & HBR
Box, Unknown HBR
Radar Cross Section
0.195 m², Large (>1 m²)

Expand to show TLE details & history
Last TLE update: 5 days ago

TLE from 5 days ago
0 OBJECT D
1 44882U 19093D   26155.28885133  .00008233  00000-0  58220-3 0  9991
2 44882  97.7918 249.9570 0014665  69.8641 290.4161 15.05055303350672
Epoch: 2026-06-04T06:55Z
TLE epoch observation values (Epoch: 2026-06-04T06:55:56.754Z)
Latitude
-0.00007°
Longitude
-106.76472°
Altitude
550.862 km
Speed
7.588 km/s
True Right ascension
16h 39m 49s
True Declination
0° 00' 00"
Sunlit
Object was in full shadow at epoch
Visualization orbit readout
Latitude
Unknown
Longitude
Unknown
Altitude
Unknown
Speed
Unknown
Apparent Right ascension
Unknown
Apparent Declination
Unknown
Sunlit
N/A
Visualization observer readout
Local Sidereal Time
00:40:03
Azimuth
Unknown
Elevation
Unknown
Doppler factor
Unknown
Orbital elements
Apogee altitude
558.496 km
Perigee altitude
538.181 km
Semi-major axis
6,926.476 km
Eccentricity
0.00147
Inclination
97.7918°
RAAN
249.957°
Arg. of periapsis
69.8641°
True anomaly
290.25851°
Mean anomaly
290.4161°
Eccentric anomaly
290.33731°
Mean motion
3.76508 °/min
Orbital period
95.62 mins
BSTAR
0.0005822
Loading maneuver chart data...
Computing Atmospheric mass density...
Loading historical data...
Loading historical data...
Loading historical data...
Loading historical data...
Loading historical data...
Loading historical data...
Loading historical data...

Documentation

Showing up to 5 results
|